Theta_e
303 301 300 300 300 300 300 301 302 303 302 298 300 301 302 304 303 302 302 302 302 301 301 301 301 301 300 299 299 299 299 299 299 298 298 298 299 301 301 309 314 314 313 318
303 300 299 300 301 301 301 301 301 301 301 299 299 300 301 302 303 303 302 301 302 301 301 300 300 300 300 299 299 299 298 299 299 300 298 297 297 298 298 300 305 308 312 311
301 299 299 300 301 300 303 301 299 298 299 300 299 300 304 303 303 302 302 302 302 301 301 300 300 300 299 299 299 298 298 299 299 298 298 297 297 297 297 297 300 301 307 309
299 297 299 300 301 300 301 299 299 299 298 300 301 299 305 302 300 301 303 303 302 301 300 300 299 299 299 298 298 298 298 299 299 298 297 297 296 296 296 296 297 298 299 301
300 299 299 301 300 299 301 298 298 298 298 299 301 298 302 302 302 301 303 303 302 301 300 300 299 299 299 298 298 298 298 298 298 297 297 296 296 296 296 296 296 296 296 299
297 296 299 298 298 298 299 299 300 298 298 301 302 300 300 302 302 303 303 303 302 301 300 300 300 299 299 298 298 298 298 298 297 297 296 296 295 295 297 296 296 296 296 298
298 298 297 296 298 298 299 302 308 306 305 311 299 299 299 303 303 302 302 302 301 300 300 300 299 299 299 298 298 297 297 297 297 297 296 295 295 295 296 296 296 297 299 300
307 307 298 296 297 296 299 298 303 304 306 304 298 299 301 303 303 303 302 301 301 301 300 299 299 299 298 298 297 296 296 297 297 297 296 295 295 295 295 296 296 297 298 300
305 304 295 296 296 296 298 301 297 299 297 299 300 301 302 303 301 301 301 301 300 300 300 300 299 298 298 297 296 296 296 296 296 297 296 296 295 296 295 295 295 297 299 300
298 304 296 295 296 296 297 297 300 299 301 300 305 304 304 302 302 302 300 300 301 301 300 299 298 298 297 297 296 296 296 296 295 295 295 295 294 294 295 295 296 298 299 300
296 299 300 295 295 298 295 296 296 296 298 302 303 302 303 303 302 301 299 300 301 300 299 298 297 297 297 297 296 295 296 295 295 294 294 294 294 294 295 295 297 298 299 300
297 298 300 300 295 294 295 299 298 299 299 297 299 299 301 302 301 300 299 300 300 300 299 298 297 297 297 297 296 296 295 294 293 293 292 293 294 294 295 296 297 297 298 299
294 297 298 300 295 293 293 296 297 297 297 297 299 300 301 299 298 299 301 301 300 299 299 298 297 296 296 296 296 295 294 293 293 291 292 293 293 293 294 295 296 296 297 299
296 298 299 302 301 296 293 294 295 293 295 298 299 300 301 301 300 301 300 300 299 299 298 297 297 296 295 296 296 293 293 292 291 291 292 292 293 293 294 294 295 296 297 299
295 290 294 294 295 294 293 293 295 295 297 296 300 299 300 300 299 299 299 300 299 298 297 297 296 295 296 296 294 293 291 291 291 292 292 291 291 292 292 293 294 296 298 300
294 292 290 289 294 295 294 295 295 296 296 296 296 296 297 298 298 298 300 299 298 297 297 296 296 296 298 296 293 292 290 290 291 292 292 291 292 292 293 293 293 297 298 298
293 291 289 292 293 293 292 293 295 295 295 296 296 297 298 298 298 300 300 299 298 297 297 296 295 297 297 295 294 293 291 291 291 292 293 293 293 293 292 293 294 294 296 297
295 292 292 291 289 292 300 296 295 295 296 296 296 297 298 298 300 300 299 298 297 297 297 296 295 298 297 296 295 293 292 290 290 292 292 292 293 293 293 293 294 294 293 293
296 294 291 290 291 296 297 296 295 294 297 296 297 297 298 298 299 299 299 298 297 296 297 295 296 297 296 296 295 293 291 290 290 291 291 291 291 290 291 293 293 293 292 294
294 294 291 286 289 292 301 294 296 294 298 297 297 297 298 298 295 296 299 298 297 297 297 296 297 298 296 296 295 294 292 291 290 291 291 289 289 289 289 289 290 290 291 291
291 289 293 292 290 294 296 293 294 298 303 301 299 299 298 296 299 300 299 298 297 296 296 296 297 298 297 296 295 294 293 292 290 291 291 289 289 289 289 289 289 289 289 289
291 292 290 292 291 294 295 292 297 300 301 301 301 301 301 300 299 298 298 297 296 296 296 296 296 298 297 296 296 295 294 293 292 293 293 289 288 288 288 289 288 289 289 289
295 295 293 294 295 296 295 298 298 299 300 300 300 300 299 299 298 298 297 297 296 296 296 296 295 299 297 296 296 295 295 294 293 293 294 290 289 288 289 289 289 289 291 290
292 296 293 294 296 295 295 297 299 298 298 300 299 298 297 297 297 297 297 297 297 296 296 296 295 296 297 297 296 295 295 294 293 293 293 293 291 290 290 290 291 291 291 291
297 294 295 294 296 296 297 297 300 299 298 298 298 298 298 297 297 298 298 298 297 297 296 296 296 295 298 297 296 296 295 295 295 293 293 293 293 292 292 291 291 292 292 293
295 293 296 298 297 299 301 303 303 300 301 301 300 299 299 299 299 300 299 299 298 297 296 296 296 295 296 296 296 294 295 295 295 295 294 294 294 293 292 293 292 292 292 293
Wind_Speed
8 8 6 8 7 5 4 4 8 5 6 6 6 13 13 14 11 11 7 10 12 14 15 16 18 20 23 26 29 32 33 35 34 39 40 40 39 40 38 43 47 39 33 24
4 5 5 2 4 4 2 7 6 8 3 7 9 20 18 15 13 10 8 11 12 14 16 18 19 20 22 27 30 34 37 37 38 35 37 41 41 39 39 44 50 58 51 46
6 4 3 1 2 7 1 3 5 6 11 11 9 8 2 6 15 8 11 14 11 13 17 19 22 24 24 27 30 32 36 39 39 39 36 38 42 42 41 38 45 48 55 54
6 2 0 0 3 4 2 5 6 9 7 4 3 5 4 7 8 8 15 10 10 12 17 20 23 24 29 32 30 33 37 39 41 38 35 32 37 43 42 42 40 44 44 50
2 3 1 2 3 1 3 5 6 4 6 7 4 1 7 7 6 9 12 4 7 11 15 22 23 26 33 30 33 35 35 39 35 36 36 35 36 37 42 41 44 42 38 41
4 2 3 6 3 5 7 6 5 3 3 1 3 1 6 5 5 2 4 5 8 14 19 25 23 29 30 33 35 34 35 36 39 36 35 36 35 36 37 39 41 45 42 36
3 3 3 2 4 3 4 3 2 4 2 4 6 3 11 7 4 3 3 6 15 18 21 23 28 32 32 34 34 34 40 41 38 37 36 33 34 35 36 39 40 40 39 38
0 4 1 2 3 2 3 3 2 4 3 4 5 6 6 4 2 10 10 11 15 17 27 27 29 30 35 36 35 38 38 36 37 39 35 34 34 36 36 36 39 40 38 37
2 1 3 5 3 3 1 2 1 2 2 2 5 7 9 2 4 4 6 5 18 21 24 27 29 31 33 35 38 36 35 40 48 34 33 38 42 36 35 36 38 38 38 38
2 0 2 3 1 1 2 1 1 1 3 5 6 6 10 6 7 4 3 14 20 22 23 27 30 32 34 33 34 37 45 47 34 34 34 40 38 36 35 35 37 36 38 35
2 3 0 3 6 5 2 2 1 1 2 3 4 6 4 2 2 3 6 18 21 24 25 29 30 32 32 33 38 39 43 34 35 35 38 38 38 36 31 32 32 31 34 34
4 3 3 4 4 4 3 2 6 4 4 3 1 9 7 0 2 7 15 19 23 22 27 29 30 34 35 41 41 43 37 34 30 38 39 30 32 30 28 28 30 33 34 34
6 2 2 3 3 4 3 5 4 3 2 6 5 8 1 5 6 11 16 24 27 25 26 30 34 34 36 40 42 38 35 31 38 38 36 29 28 28 29 32 32 32 34 34
7 1 5 6 4 4 3 4 6 6 4 4 17 19 24 21 19 18 26 30 26 23 25 28 34 37 41 40 40 33 34 36 36 34 34 30 29 30 30 32 34 33 33 32
4 5 2 5 5 5 7 9 12 18 21 9 20 14 26 14 16 27 33 23 21 23 25 28 34 38 40 43 38 35 35 34 35 30 32 31 31 32 34 34 34 31 31 30
4 2 2 5 8 6 7 17 18 25 24 23 29 30 36 43 42 29 20 17 21 24 25 28 36 38 40 40 35 37 37 36 27 28 30 31 31 33 33 33 32 29 29 28
6 4 3 5 3 6 8 15 21 10 10 25 18 29 16 18 20 12 19 20 24 22 20 28 33 35 36 37 35 36 36 28 27 27 27 27 28 30 31 31 29 27 27 25
7 5 3 4 3 4 6 5 7 16 16 24 16 20 15 17 23 26 26 24 20 16 20 24 28 31 31 32 30 33 31 27 25 25 26 24 25 25 28 28 26 24 21 20
8 4 2 2 3 10 10 4 7 8 10 23 26 25 29 29 21 29 23 12 14 16 16 21 25 26 28 29 29 30 29 27 25 25 26 25 25 25 25 24 23 20 17 17
1 0 3 3 4 7 4 2 6 5 11 16 28 22 18 11 2 7 7 13 20 18 18 20 23 23 24 25 25 27 27 27 27 27 26 24 25 25 23 21 17 14 14 9
3 1 12 7 5 10 11 12 10 5 8 1 27 27 23 7 16 17 18 22 22 16 17 19 20 20 21 21 22 23 26 27 26 26 23 23 22 22 21 17 15 14 17 20
12 13 6 5 5 14 19 10 8 7 4 13 22 24 23 18 17 20 23 23 19 14 16 17 17 17 17 17 18 18 21 24 24 24 21 20 21 19 18 15 14 14 18 23
6 9 9 15 11 4 40 16 35 10 8 13 19 21 21 19 20 21 25 23 17 13 15 16 14 14 14 13 15 14 16 18 21 24 26 23 20 17 16 15 16 19 18 23
7 16 4 3 10 17 30 39 36 25 28 26 21 20 19 23 28 30 27 24 20 15 15 16 14 12 11 9 12 9 13 15 16 19 22 24 24 22 18 19 20 23 26 27
9 16 10 10 15 16 23 36 49 45 41 41 43 44 41 38 38 33 27 23 22 17 16 15 15 12 10 8 6 8 9 12 15 15 18 19 20 21 21 22 22 22 25 26
12 8 11 11 12 22 20 31 35 37 38 35 36 34 31 28 28 26 26 23 23 20 16 16 16 15 12 10 6 4 6 9 12 13 15 17 17 17 17 19 22 24 23 24
Wind_Direction
18 64 61 29 22 17 28 318 280 315 24 349 285 288 275 271 229 246 282 311 319 322 327 326 323 325 324 326 328 323 324 325 328 323 321 316 316 314 310 289 287 294 308 308
50 80 58 42 337 347 301 291 333 301 77 336 284 287 272 243 237 223 260 288 305 317 323 325 324 325 323 321 323 323 321 325 324 322 317 313 315 312 311 309 292 289 293 294
77 106 124 4 24 12 311 309 6 294 314 266 289 271 216 195 204 202 252 270 289 314 321 322 325 328 327 322 323 318 317 321 321 318 314 312 311 313 314 309 298 298 291 284
73 129 175 335 95 25 315 47 332 308 328 298 39 284 240 175 196 218 239 243 294 304 315 316 319 322 322 322 319 314 316 321 321 320 312 308 306 307 310 309 305 298 295 299
157 162 177 242 81 100 228 13 284 307 291 315 199 282 262 123 201 233 214 236 277 308 314 312 317 316 319 320 320 320 317 319 317 313 308 306 303 302 305 307 305 300 298 297
73 32 335 8 295 233 291 284 204 215 229 328 124 48 277 187 200 153 189 233 305 306 307 312 311 318 318 318 320 317 316 316 316 313 309 307 303 302 300 300 303 305 303 293
156 127 99 347 305 169 302 318 318 349 5 236 116 323 250 283 205 188 269 289 287 299 315 327 319 322 319 321 317 312 314 317 317 315 309 304 301 297 295 295 298 300 296 290
85 316 100 349 49 343 6 26 125 260 300 310 142 234 255 177 319 265 257 276 290 314 316 320 321 319 321 319 316 315 315 316 316 315 308 305 304 301 298 293 297 296 292 287
132 223 97 39 351 344 20 64 60 307 138 349 241 273 286 303 199 175 209 318 318 317 325 326 323 323 320 317 319 316 314 310 317 314 308 302 305 304 297 292 295 294 290 282
192 28 1 113 236 63 336 51 113 326 357 290 284 277 248 240 248 177 17 321 317 323 329 330 329 324 320 320 318 311 312 319 320 317 313 309 310 305 296 293 294 291 291 287
132 111 233 44 201 175 156 167 60 83 162 227 301 254 219 282 351 297 292 295 311 329 332 330 326 328 323 320 319 317 323 324 317 319 315 309 309 310 301 299 295 293 291 286
204 134 219 202 80 47 352 226 173 143 234 242 284 267 266 237 205 252 273 297 323 323 328 330 327 327 326 325 325 325 326 323 321 317 322 319 316 314 306 299 293 295 298 292
193 225 356 303 11 13 220 205 231 63 72 213 159 261 128 149 235 255 297 325 321 317 331 329 329 328 327 327 327 325 326 322 316 325 332 325 317 316 301 298 305 309 308 301
163 221 195 205 186 122 192 221 212 154 185 202 226 275 269 281 297 298 317 314 306 312 329 330 329 328 329 329 329 330 320 323 323 329 332 329 320 313 313 313 311 310 309 307
140 203 208 280 261 206 204 219 198 210 219 211 258 261 271 270 288 299 302 298 301 313 332 329 327 328 330 332 335 329 325 323 329 330 332 330 327 323 318 317 317 316 314 311
171 247 80 281 258 243 250 249 234 230 237 246 256 270 267 279 281 282 284 301 300 315 331 326 327 330 333 334 331 332 333 329 338 335 332 330 328 325 326 327 329 324 319 318
156 143 113 262 336 312 283 236 228 208 217 223 235 241 266 276 277 285 304 301 296 311 323 323 326 329 332 333 333 335 336 341 340 334 331 332 332 331 333 333 332 333 332 328
154 150 156 265 1 262 241 197 186 209 240 222 243 249 242 252 271 292 292 290 292 303 321 324 327 328 335 334 339 338 346 345 339 337 333 334 332 336 338 338 341 346 342 340
155 153 216 200 221 299 288 196 170 174 261 222 226 248 254 263 286 285 288 246 297 308 321 327 332 331 339 342 346 347 354 352 349 344 346 344 344 344 345 350 355 353 356 356
168 222 157 117 200 243 237 124 143 120 286 225 199 229 240 234 224 258 235 286 309 310 319 328 334 333 340 347 352 357 360 2 4 360 356 356 354 353 356 358 3 7 25 46
145 239 215 207 247 275 247 154 143 101 245 204 189 212 213 193 231 270 279 285 300 300 313 326 334 332 340 346 357 4 10 11 12 3 5 8 7 5 6 9 24 49 74 85
167 171 186 187 215 270 159 126 188 214 234 216 197 205 207 229 255 270 283 286 293 295 310 321 330 329 335 342 359 6 18 19 24 15 14 18 21 16 20 30 48 59 73 84
214 195 179 196 210 211 179 207 215 224 238 223 221 221 228 239 262 288 293 289 289 283 304 313 316 327 326 341 355 11 25 21 33 29 27 30 33 35 39 51 63 73 78 82
235 220 227 104 221 234 210 230 242 243 247 255 250 246 249 256 283 289 289 284 287 275 294 299 297 316 313 336 357 17 34 34 27 45 39 36 46 51 58 64 71 76 81 84
194 162 199 256 262 289 255 242 253 254 258 261 264 262 265 268 278 281 281 280 281 283 283 288 287 290 294 300 351 34 46 47 40 40 48 52 50 55 62 66 69 76 81 85
192 179 195 229 184 213 243 253 262 255 259 268 269 268 268 261 277 276 278 280 276 282 276 279 278 277 277 270 279 334 55 56 54 46 46 42 46 60 65 70 80 79 81 84